Live-Position
3D-Globus wird geladen...
Über Beidou DW 34
Group: 3 satellites
Beschreibung wird geladen...
Nächste Überflüge
Passes for default location (London). Set your location on the main map for personalized predictions.
Höhenverlauf
Loading altitude history...
No altitude history available
Zweizeiliger Elementsatz
1 43582U 18062B 26126.08789042 .00000031 00000-0 00000+0 0 9997
2 43582 54.0833 183.7250 0004745 19.9428 340.1588 1.86231566 52853
Epoch: 6. Mai 2026 •
Age: 29 hours
Aktueller Status
Höhe 21532.4 km
Geschwindigkeit 3.78 km/s
Subsatellitenpunkt 53.69°N,
50.99°W
Startdatum 29. Juli 2018
Alter 7.7 years
Typ navigation
Technische Details
Klassifizierung Payload
Masse 1014.00 kg
Trockenmasse 850.00 kg
Gesamtmasse 1014.00 kg
Länge 2.20 m
Durchmesser 1.70 m
Spannweite 10.00 m
Form Box + 2 Pan
Hersteller CAST
Bus-Typ BD-3M
Phasenstatus In Orbit
Besitzer/Staat CNSA/CN
Most Searched
Loading...